Printer-friendly version

IAU Minor Planet Center

Minor Planet Center

MPEC 2006-W32 : 2006 WO1

The following Minor Planet Electronic Circular may be linked-to from your own Web pages, but must not otherwise be redistributed electronically.


Read MPEC 2006-W31 Read MPEC 2006-W33


M.P.E.C. 2006-W32                                Issued 2006 Nov. 20, 19:27 UT

     The Minor Planet Electronic Circulars contain information on unusual
         minor planets and routine data on comets.  They are published
   on behalf of Commission 20 of the International Astronomical Union by the
          Minor Planet Center, Smithsonian Astrophysical Observatory,
                          Cambridge, MA 02138, U.S.A.

             Prepared using the Tamkin Foundation Computer Network

                              MPC@CFA.HARVARD.EDU
          URL http://cfa-www.harvard.edu/iau/mpc.html  ISSN 1523-6714

                                   2006 WO1

Observations:
     K06W01O* C2006 11 17.43280 05 08 40.05 +15 49 52.5          20.8 V EW032G96
     K06W01O  C2006 11 17.43830 05 08 39.66 +15 49 49.8          21.1 V EW032G96
     K06W01O  C2006 11 17.44384 05 08 39.22 +15 49 47.3          20.8 V EW032G96
     K06W01O  C2006 11 17.44940 05 08 38.76 +15 49 44.9          20.3 V EW032G96
     K06W01O  C2006 11 17.48344 05 08 36.27 +15 49 27.9          20.4 V EW032G96
     K06W01O  C2006 11 17.48885 05 08 35.84 +15 49 24.9          21.8 V EW032G96
     K06W01O  C2006 11 17.49414 05 08 35.44 +15 49 21.9          21.4 V EW032G96
     K06W01O  C2006 11 17.49950 05 08 35.01 +15 49 18.8          20.2 V EW032G96
     K06W01O IC2006 11 18.14211 05 07 48.35 +15 44 00.5                 EW032J95
     K06W01O  C2006 11 18.15307 05 07 47.46 +15 43 54.3          21.0 R EW032J95
     K06W01O  C2006 11 18.36979 05 07 31.56 +15 42 11.4                 EW032711
     K06W01O  C2006 11 18.38096 05 07 30.82 +15 42 05.8          20.7 V EW032G96
     K06W01O  C2006 11 18.38197 05 07 30.57 +15 42 06.0                 EW032711
     K06W01O  C2006 11 18.38667 05 07 30.32 +15 42 03.1          21.1 V EW032G96
     K06W01O  C2006 11 18.39234 05 07 29.92 +15 42 00.5          21.0 V EW032G96
     K06W01O  C2006 11 18.39416 05 07 29.61 +15 42 01.4                 EW032711
     K06W01O  C2006 11 18.39796 05 07 29.46 +15 41 58.1          20.6 V EW032G96
     K06W01O  C2006 11 18.47476 05 07 23.58 +15 41 19.8          21.9 V EW032291
     K06W01O  C2006 11 18.48273 05 07 22.98 +15 41 15.9          22.1 V EW032291
     K06W01O  C2006 11 18.49524 05 07 22.02 +15 41 10.1          22.2 V EW032291
     K06W01O IC2006 11 18.61050 05 07 14.22 +15 40 15.4          21.5 V EW032D35
     K06W01O IC2006 11 18.61193 05 07 13.99 +15 40 14.4          20.4 V EW032D35
     K06W01O  C2006 11 19.33499 05 06 20.19 +15 34 21.2          20.7 V EW032G96
     K06W01O  C2006 11 19.34118 05 06 19.72 +15 34 18.4          20.8 V EW032G96
     K06W01O  C2006 11 19.34729 05 06 19.18 +15 34 15.3          21.5 V EW032G96
     K06W01O  C2006 11 19.35345 05 06 18.75 +15 34 12.2          21.5 V EW032G96
     K06W01O  C2006 11 20.30252 05 05 07.80 +15 26 35.1          21.1 V EW032G96
     K06W01O  C2006 11 20.30747 05 05 07.37 +15 26 33.2          20.7 V EW032G96

Observer details:
291 LPL/Spacewatch II.  Observer J. V. Scotti.  1.8-m f/2.7 reflector + CCD.
711 McDonald Observatory.  Observer J. G. Ries.  0.76-m reflector + CCD
    + prime-focus corrector.
D35 Lulin Observatory.  Observers H.-C. Lin, C.-S. Lin, M.-T. Chang, Q.-z. Ye.
    Measurer Q.-z. Ye.  0.41-m f/8.8 Ritchey-Chretien + 2Kx2K CCD.
G96 Mt. Lemmon Survey.  Observers S. M. Larson, A. R. Gibbs.  Measurers
    E. C. Beshore, E. J. Christensen, G. J. Garradd, A. R. Gibbs, A. D. Grauer,
    R. E. Hill, R. A. Kowalski, S. M. Larson, R. H. McNaught.  1.5-m reflector
    + CCD.
J95 Great Shefford.  Observer P. Birtwhistle.  0.40-m f/6.0 Schmidt-Cassegrain
    + CCD.

Orbital elements:
2006 WO1
Epoch 2006 Sept. 22.0 TT = JDT 2454000.5                MPC
M  19.11057              (2000.0)            P               Q
n   0.21654089     Peri.  115.71788     +0.92366476     +0.36777528
a   2.7464779      Node   222.93227     -0.38304647     +0.87813335
e   0.5260480      Incl.    9.09197     -0.01090003     +0.30597902
P   4.55           H   18.8           G   0.15           U   8
Residuals in seconds of arc
061117 G96  0.5-  0.2-    061118 711  0.4-  0.5-    061118 D35  0.5-  0.7+
061117 G96  0.1-  0.2-    061118 G96  0.5+  0.3-    061118 D35  2.2-  0.4+
061117 G96  0.4-  0.1+    061118 711  1.1-  0.1+    061119 G96  0.1+  0.2-
061117 G96  1.0-  0.5+    061118 G96  0.4-  0.2-    061119 G96  0.2+  0.0
061117 G96  0.1+  0.6+    061118 G96  0.1+  0.0     061119 G96  0.7-  0.2-
061117 G96  0.2-  0.3+    061118 711  1.5-  1.6+    061119 G96  0.0   0.3-
061117 G96  0.2-  0.0     061118 G96  0.3-  0.3+    061120 G96  0.6+  0.3-
061117 G96  0.7-  0.4-    061118 291  0.3-  0.0     061120 G96  0.0   0.2+
061118 J95  1.6+  0.0     061118 291  0.2-  0.0
061118 J95  0.7+  0.8-    061118 291  0.3-  0.5+

Ephemeris:
2006 WO1                 a,e,i = 2.75, 0.53, 9                   q = 1.3017
Date    TT    R. A. (2000) Decl.     Delta      r     Elong.  Phase     V
2006 11 21    05 04.25   +15 21.1    1.012    1.971   160.6     9.6    20.9
2006 12 01    04 51.44   +14 08.4    1.056    2.035   170.5     4.6    20.9
2006 12 11    04 39.51   +13 11.9    1.126    2.099   167.7     5.7    21.1
2006 12 21    04 29.92   +12 34.6    1.222    2.163   157.1    10.2    21.6
2006 12 31    04 23.52   +12 16.8    1.342    2.226   146.0    14.3    22.0

Kyle E. Smalley              (C) Copyright 2006 MPC           M.P.E.C. 2006-W32

Read MPEC 2006-W31 Read MPEC 2006-W33


Our Web policy. Index to the CBAT/MPC/ICQ pages.


Valid HTML 4.01!